This is the latest recevied weather packets stored in our database for station/object N5SOR-1. If no packets are shown the sender has not sent any weather packets the latest 10 day(s).
| Time | Temp. | Humidity | Pressure | Rain* | Wind** | Luminosity | Snow |
|---|---|---|---|---|---|---|---|
| 1777922030 | 28.33° C | 28% | 1011.3 hPa | 0 mm | - | 923 W/m² | - |
| 1777921369 | 28.33° C | 28% | 1011.4 hPa | 0 mm | - | 744 W/m² | - |
| 1777920709 | 27.78° C | 27% | 1011.5 hPa | 0 mm | - | 603 W/m² | - |
| 1777920048 | 27.22° C | 28% | 1011.7 hPa | 0 mm | - | 561 W/m² | - |
| 1777919387 | 27.78° C | 28% | 1011.8 hPa | 0 mm | - | 517 W/m² | - |
| 1777918727 | 27.22° C | 30% | 1011.8 hPa | 0 mm | - | 566 W/m² | - |
| 1777918066 | 27.22° C | 31% | 1011.9 hPa | 0 mm | - | 464 W/m² | - |
| 1777917406 | 27.78° C | 30% | 1012.3 hPa | 0 mm | - | 438 W/m² | - |
| 1777916745 | 27.78° C | 30% | 1012.2 hPa | 0 mm | - | 452 W/m² | - |
| 1777916084 | 27.22° C | 31% | 1012.3 hPa | 0 mm | - | 446 W/m² | - |
| 1777915424 | 26.67° C | 31% | 1012.2 hPa | 0 mm | - | 404 W/m² | - |
| 1777914763 | 27.22° C | 33% | 1012.3 hPa | 0 mm | - | 496 W/m² | - |
| 1777914103 | 26.67° C | 33% | 1012.5 hPa | 0 mm | - | 369 W/m² | - |
| 1777913442 | 26.67° C | 33% | 1012.4 hPa | 0 mm | - | 374 W/m² | - |
| 1777912781 | 26.11° C | 33% | 1012.5 hPa | 0 mm | - | 366 W/m² | - |
| 1777912121 | 26.11° C | 35% | 1012.6 hPa | 0 mm | - | 348 W/m² | - |
| 1777911460 | 26.11° C | 35% | 1012.4 hPa | 0 mm | - | 360 W/m² | - |
| 1777910800 | 25.56° C | 36% | 1012.4 hPa | 0 mm | - | 278 W/m² | - |
| 1777910139 | 25.56° C | 36% | 1012.6 hPa | 0 mm | - | 223 W/m² | - |
| 1777909478 | 25° C | 38% | 1012.5 hPa | 0 mm | - | 199 W/m² | - |
| 1777908818 | 24.44° C | 40% | 1012.6 hPa | 0 mm | - | 186 W/m² | - |
| 1777908157 | 23.89° C | 41% | 1012.7 hPa | 0 mm | - | 253 W/m² | - |
| 1777907496 | 23.33° C | 43% | 1012.4 hPa | 0 mm | - | 369 W/m² | - |
| 1777906836 | 22.22° C | 48% | 1012.5 hPa | 0 mm | - | 441 W/m² | - |
| 1777906175 | 21.67° C | 50% | 1012.5 hPa | 0 mm | - | 236 W/m² | - |
* Rain latest hour (hover to see other rain measurements)
** Current wind speed in m/s (hover to see current wind gust speed)